| time (UTC) | temp F | wind direction | speed MPH | gust MPH | rain 1hr in | rain 24hr in | rain mn in | humidity % | barometer mb |
| 20260505054539 | 59 | 113 | 4.0 | 7.0 | 0.00 | 0.00 | 0.00 | 77 | 1009.9 |
| 20260505053519 | 59 | 90 | 4.0 | 7.0 | 0.00 | 0.00 | 0.00 | 76 | 1009.9 |
| 20260505052519 | 60 | 113 | 3.0 | 7.0 | 0.00 | 0.00 | 0.00 | 75 | 1009.8 |
| 20260505051519 | 60 | 68 | 3.0 | 5.0 | 0.00 | 0.00 | 0.00 | 74 | 1009.7 |
| 20260505050519 | 60 | 113 | 3.0 | 6.0 | 0.00 | 0.00 | 0.00 | 73 | 1009.6 |
| 20260505041600 | 63 | 113 | 5.0 | 8.0 | 0.00 | 0.00 | 0.00 | 68 | 1008.8 |
| 20260505040602 | 64 | 90 | 5.0 | 9.0 | 0.00 | 0.00 | 0.00 | 67 | 1008.8 |
| 20260505035519 | 64 | 113 | 4.0 | 8.0 | 0.00 | 0.00 | 0.00 | 66 | 1008.7 |
| 20260505034518 | 65 | 90 | 5.0 | 8.0 | 0.00 | 0.00 | 0.00 | 64 | 1008.4 |
| 20260505033519 | 66 | 90 | 5.0 | 8.0 | 0.00 | 0.00 | 0.00 | 62 | 1008.4 |
| 20260505032538 | 67 | 68 | 4.0 | 8.0 | 0.00 | 0.00 | 0.00 | 61 | 1008.2 |
| 20260505031519 | 68 | 135 | 3.0 | 6.0 | 0.00 | 0.00 | 0.00 | 59 | 1008.0 |
| 20260505030519 | 69 | 68 | 5.0 | 10.0 | 0.00 | 0.00 | 0.00 | 57 | 1008.0 |
| 20260505025520 | 70 | 68 | 2.0 | 5.0 | 0.00 | 0.00 | 0.00 | 55 | 1007.8 |
| 20260505024535 | 71 | 113 | 2.0 | 7.0 | 0.00 | 0.00 | 0.00 | 54 | 1007.7 |
| 20260505023519 | 72 | 45 | 3.0 | 10.0 | 0.00 | 0.00 | 0.00 | 52 | 1007.7 |
| 20260505022519 | 72 | 158 | 7.0 | 13.0 | 0.00 | 0.00 | 0.00 | 49 | 1007.5 |
| 20260505021539 | 72 | 180 | 7.0 | 12.0 | 0.00 | 0.00 | 0.00 | 49 | 1007.4 |
| 20260505020519 | 73 | 180 | 10.0 | 20.0 | 0.00 | 0.00 | 0.00 | 49 | 1007.4 |
| 20260505015539 | 73 | 180 | 10.0 | 21.0 | 0.00 | 0.00 | 0.00 | 49 | 1007.4 |
| 20260505014518 | 74 | 180 | 12.0 | 18.0 | 0.00 | 0.00 | 0.00 | 47 | 1007.3 |
| 20260505013525 | 74 | 180 | 11.0 | 18.0 | 0.00 | 0.00 | 0.00 | 47 | 1007.3 |
| 20260505012518 | 75 | 180 | 12.0 | 20.0 | 0.00 | 0.00 | 0.00 | 46 | 1007.2 |
| 20260505011535 | 76 | 180 | 11.0 | 20.0 | 0.00 | 0.00 | 0.00 | 45 | 1007.2 |
| 20260505010519 | 76 | 180 | 11.0 | 20.0 | 0.00 | 0.00 | 0.00 | 45 | 1007.2 |
| 20260505005520 | 76 | 180 | 10.0 | 20.0 | 0.00 | 0.00 | 0.00 | 45 | 1007.2 |
| 20260505004538 | 77 | 180 | 11.0 | 18.0 | 0.00 | 0.00 | 0.00 | 44 | 1007.2 |
| 20260505003519 | 77 | 180 | 13.0 | 22.0 | 0.00 | 0.00 | 0.00 | 44 | 1007.2 |
| 20260505002539 | 78 | 180 | 12.0 | 19.0 | 0.00 | 0.00 | 0.00 | 42 | 1007.1 |
| 20260505001519 | 79 | 180 | 15.0 | 23.0 | 0.00 | 0.00 | 0.00 | 42 | 1007.1 |
| 20260505000519 | 79 | 180 | 14.0 | 23.0 | 0.00 | 0.00 | 0.00 | 41 | 1007.1 |
| 20260504235519 | 80 | 180 | 14.0 | 21.0 | 0.00 | 0.00 | 0.00 | 39 | 1007.0 |
| 20260504234547 | 80 | 180 | 13.0 | 21.0 | 0.00 | 0.00 | 0.00 | 40 | 1007.1 |
| 20260504233518 | 80 | 180 | 15.0 | 23.0 | 0.00 | 0.00 | 0.00 | 40 | 1007.1 |
| 20260504232520 | 81 | 180 | 14.0 | 22.0 | 0.00 | 0.00 | 0.00 | 41 | 1007.1 |
| 20260504231519 | 81 | 180 | 15.0 | 22.0 | 0.00 | 0.00 | 0.00 | 39 | 1007.0 |
| 20260504230518 | 82 | 180 | 14.0 | 23.0 | 0.00 | 0.00 | 0.00 | 38 | 1007.0 |
| 20260504225539 | 82 | 180 | 17.0 | 23.0 | 0.00 | 0.00 | 0.00 | 38 | 1007.2 |
| 20260504224519 | 83 | 180 | 11.0 | 17.0 | 0.00 | 0.00 | 0.00 | 37 | 1007.2 |
| 20260504223518 | 83 | 180 | 13.0 | 21.0 | 0.00 | 0.00 | 0.00 | 37 | 1007.2 |
| 20260504222519 | 84 | 180 | 14.0 | 22.0 | 0.00 | 0.00 | 0.00 | 36 | 1007.2 |
| 20260504221519 | 85 | 180 | 14.0 | 21.0 | 0.00 | 0.00 | 0.00 | 35 | 1007.2 |
| 20260504220518 | 85 | 180 | 14.0 | 22.0 | 0.00 | 0.00 | 0.00 | 34 | 1007.2 |
| 20260504215518 | 85 | 180 | 14.0 | 22.0 | 0.00 | 0.00 | 0.00 | 35 | 1007.2 |
| 20260504214518 | 85 | 180 | 13.0 | 20.0 | 0.00 | 0.00 | 0.00 | 34 | 1007.4 |
| 20260504213518 | 86 | 180 | 11.0 | 18.0 | 0.00 | 0.00 | 0.00 | 33 | 1007.4 |
| 20260504212519 | 86 | 180 | 12.0 | 20.0 | 0.00 | 0.00 | 0.00 | 34 | 1007.6 |
| 20260504211518 | 86 | 180 | 12.0 | 18.0 | 0.00 | 0.00 | 0.00 | 33 | 1007.6 |
| 20260504210518 | 86 | 180 | 10.0 | 17.0 | 0.00 | 0.00 | 0.00 | 33 | 1007.7 |
| 20260504205518 | 87 | 180 | 13.0 | 22.0 | 0.00 | 0.00 | 0.00 | 33 | 1007.8 |
| 20260504204518 | 87 | 180 | 8.0 | 15.0 | 0.00 | 0.00 | 0.00 | 33 | 1007.8 |
| 20260504203541 | 87 | 180 | 8.0 | 14.0 | 0.00 | 0.00 | 0.00 | 33 | 1007.8 |
| 20260504202518 | 87 | 203 | 6.0 | 10.0 | 0.00 | 0.00 | 0.00 | 34 | 1008.2 |
| 20260504201519 | 87 | 180 | 5.0 | 11.0 | 0.00 | 0.00 | 0.00 | 33 | 1008.2 |
| 20260504200517 | 86 | 180 | 7.0 | 12.0 | 0.00 | 0.00 | 0.00 | 33 | 1008.3 |
| 20260504195520 | 86 | 225 | 4.0 | 7.0 | 0.00 | 0.00 | 0.00 | 33 | 1008.3 |
| 20260504194520 | 86 | 225 | 4.0 | 6.0 | 0.00 | 0.00 | 0.00 | 32 | 1008.4 |
| 20260504193522 | 85 | 180 | 5.0 | 7.0 | 0.00 | 0.00 | 0.00 | 35 | 1008.4 |
| 20260504192519 | 84 | 225 | 4.0 | 10.0 | 0.00 | 0.00 | 0.00 | 35 | 1008.5 |
| 20260504191520 | 82 | 225 | 3.0 | 5.0 | 0.00 | 0.00 | 0.00 | 34 | 1008.7 |
| 20260504190520 | 81 | 248 | 2.0 | 4.0 | 0.00 | 0.00 | 0.00 | 38 | 1008.7 |
| 20260504185523 | 81 | 225 | 3.0 | 6.0 | 0.00 | 0.00 | 0.00 | 38 | 1008.8 |
| 20260504184558 | 80 | 225 | 4.0 | 7.0 | 0.00 | 0.00 | 0.00 | 37 | 1008.8 |
| 20260504183644 | 80 | 225 | 4.0 | 6.0 | 0.00 | 0.00 | 0.00 | 39 | 1008.8 |
| 20260504182521 | 79 | 225 | 3.0 | 4.0 | 0.00 | 0.00 | 0.00 | 42 | 1008.9 |
| 20260504181540 | 79 | 225 | 3.0 | 5.0 | 0.00 | 0.00 | 0.00 | 42 | 1009.0 |
| 20260504180542 | 78 | 225 | 4.0 | 5.0 | 0.00 | 0.00 | 0.00 | 41 | 1009.0 |
| 20260504175520 | 78 | 315 | 1.0 | 3.0 | 0.00 | 0.00 | 0.00 | 42 | 1009.1 |
| 20260504174520 | 77 | 270 | 1.0 | 3.0 | 0.00 | 0.00 | 0.00 | 46 | 1009.2 |
| 20260504173520 | 76 | 225 | 1.0 | 4.0 | 0.00 | 0.00 | 0.00 | 47 | 1009.2 |
| 20260504172520 | 75 | 225 | 2.0 | 4.0 | 0.00 | 0.00 | 0.00 | 48 | 1009.3 |
| 20260504171520 | 73 | 248 | 1.0 | 3.0 | 0.00 | 0.00 | 0.00 | 51 | 1009.3 |
| 20260504170539 | 72 | 158 | 1.0 | 3.0 | 0.00 | 0.00 | 0.00 | 53 | 1009.3 |
| 20260504150540 | 56 | 315 | 0.0 | 1.0 | 0.00 | 0.00 | 0.00 | 77 | 1010.0 |
| 20260504140520 | 50 | 338 | 1.0 | 3.0 | 0.00 | 0.00 | 0.00 | 85 | 1009.8 |
| 20260504130519 | 50 | 0 | 2.0 | 2.0 | 0.00 | 0.00 | 0.00 | 84 | 1009.3 |
| 20260504110616 | 52 | 0 | 2.0 | 3.0 | 0.00 | 0.00 | 0.00 | 79 | 1009.3 |
| 20260504100519 | 54 | 23 | 1.0 | 2.0 | 0.00 | 0.00 | 0.00 | 73 | 1009.3 |
| 20260504081519 | 58 | 0 | 1.0 | 2.0 | 0.00 | 0.00 | 0.00 | 64 | 1009.1 |
| 20260504080519 | 58 | 23 | 1.0 | 2.0 | 0.00 | 0.00 | 0.00 | 64 | 1009.1 |